SWA1187 KBWI-KMCO

Flight info

Callsign SWA1187
Flight time N/A
Altitude 38000
Route TERPZ8 RRSIN GSO Q83 ROYCO Q85 LPERD SNFLD3
Aircraft B737/M-SDE2E3FGHIRWXY/LB1

Departure

Time N/A
Airport Baltimore/Washington International Thurgood Marshall Airport (KBWI)

Arrival

Time 2026-04-21 19:36
Airport Orlando International Airport (KMCO)
Time Latitude Longitude Altitude Speed Heading
2026-04-21 18:02 37.82652 -78.15404 38055 ft 443 kts 226°
2026-04-21 18:03 37.80291 -78.17897 38286 ft 442 kts 226°
2026-04-21 18:03 37.77923 -78.20398 38405 ft 445 kts 226°
2026-04-21 18:03 37.73164 -78.25412 38383 ft 444 kts 226°
2026-04-21 18:04 37.68439 -78.30374 38393 ft 440 kts 226°
2026-04-21 18:04 37.63750 -78.35299 38381 ft 438 kts 226°
2026-04-21 18:05 37.59080 -78.40193 38366 ft 436 kts 226°
2026-04-21 18:05 37.54425 -78.45065 38375 ft 435 kts 226°
2026-04-21 18:06 37.49769 -78.49931 38368 ft 436 kts 226°
2026-04-21 18:06 37.45087 -78.54810 38373 ft 438 kts 226°
2026-04-21 18:07 37.40368 -78.59679 38378 ft 440 kts 226°
2026-04-21 18:07 37.35620 -78.64565 38384 ft 442 kts 226°
2026-04-21 18:08 37.30848 -78.69470 38369 ft 444 kts 226°
2026-04-21 18:08 37.26061 -78.74388 38405 ft 445 kts 226°
2026-04-21 18:09 37.21262 -78.79311 38411 ft 446 kts 226°
2026-04-21 18:09 37.16461 -78.84224 38398 ft 445 kts 226°
2026-04-21 18:10 37.11665 -78.89127 38406 ft 445 kts 226°
2026-04-21 18:10 37.06870 -78.94020 38405 ft 444 kts 226°
2026-04-21 18:11 37.02115 -78.98865 38402 ft 443 kts 226°
2026-04-21 18:11 36.97340 -79.03724 38406 ft 442 kts 226°
2026-04-21 18:12 36.92577 -79.08573 38403 ft 440 kts 227°
2026-04-21 18:12 36.87855 -79.13417 38397 ft 439 kts 227°
2026-04-21 18:13 36.83145 -79.18252 38404 ft 438 kts 227°
2026-04-21 18:13 36.78434 -79.23076 38396 ft 438 kts 227°
2026-04-21 18:14 36.71368 -79.30290 38385 ft 438 kts 228°
2026-04-21 18:15 36.66657 -79.35089 38384 ft 438 kts 228°
2026-04-21 18:15 36.61939 -79.39889 38384 ft 438 kts 228°
2026-04-21 18:16 36.57214 -79.44686 38378 ft 438 kts 228°
2026-04-21 18:16 36.52493 -79.49471 38390 ft 438 kts 228°
2026-04-21 18:17 36.47768 -79.54254 38396 ft 438 kts 228°
2026-04-21 18:17 36.43044 -79.59027 38398 ft 438 kts 228°
2026-04-21 18:18 36.38315 -79.63797 38390 ft 438 kts 228°
2026-04-21 18:18 36.33594 -79.68553 38397 ft 437 kts 228°
2026-04-21 18:19 36.28878 -79.73296 38380 ft 436 kts 228°
2026-04-21 18:19 36.24167 -79.78027 38386 ft 435 kts 228°
2026-04-21 18:20 36.19460 -79.82746 38379 ft 435 kts 228°
2026-04-21 18:20 36.14764 -79.87447 38379 ft 434 kts 228°
2026-04-21 18:21 36.10073 -79.92138 38388 ft 433 kts 228°
2026-04-21 18:21 36.05346 -79.96765 38376 ft 437 kts 223°
2026-04-21 18:21 36.02724 -79.98655 38375 ft 449 kts 213°
2026-04-21 18:22 35.99825 -80.00151 38401 ft 453 kts 210°
2026-04-21 18:22 35.93935 -80.02978 38387 ft 454 kts 210°
2026-04-21 18:23 35.88044 -80.05815 38390 ft 455 kts 210°
2026-04-21 18:23 35.82170 -80.08699 38380 ft 454 kts 210°
2026-04-21 18:24 35.76300 -80.11597 38391 ft 455 kts 210°
2026-04-21 18:24 35.70424 -80.14492 38395 ft 455 kts 210°
2026-04-21 18:25 35.64552 -80.17381 38390 ft 454 kts 210°
2026-04-21 18:25 35.58681 -80.20264 38412 ft 454 kts 210°
2026-04-21 18:26 35.52812 -80.23141 38418 ft 454 kts 210°
2026-04-21 18:26 35.46951 -80.26011 38421 ft 453 kts 210°
2026-04-21 18:27 35.41097 -80.28871 38422 ft 453 kts 210°
2026-04-21 18:27 35.34897 -80.30804 38411 ft 466 kts 197°
2026-04-21 18:28 35.28468 -80.31954 38411 ft 467 kts 196°
2026-04-21 18:28 35.22037 -80.33090 38417 ft 466 kts 196°
2026-04-21 18:29 35.15626 -80.34275 38417 ft 466 kts 197°
2026-04-21 18:29 35.09217 -80.35485 38388 ft 466 kts 197°
2026-04-21 18:30 35.02814 -80.36699 38397 ft 466 kts 197°
2026-04-21 18:30 34.96406 -80.37912 38394 ft 466 kts 197°
2026-04-21 18:31 34.89993 -80.39122 38401 ft 466 kts 197°
2026-04-21 18:31 34.83578 -80.40331 38390 ft 466 kts 197°
2026-04-21 18:32 34.77165 -80.41535 38393 ft 467 kts 197°
2026-04-21 18:32 34.70745 -80.42740 38395 ft 467 kts 197°
2026-04-21 18:33 34.64360 -80.43935 38396 ft 467 kts 197°
2026-04-21 18:33 34.57940 -80.45135 38386 ft 467 kts 197°
2026-04-21 18:34 34.51522 -80.46333 38394 ft 466 kts 197°
2026-04-21 18:34 34.45104 -80.47530 38390 ft 467 kts 197°
2026-04-21 18:35 34.39726 -80.48531 38382 ft 467 kts 197°
2026-04-21 18:35 34.32262 -80.49919 38382 ft 467 kts 197°
2026-04-21 18:36 34.25839 -80.51122 38388 ft 466 kts 198°
2026-04-21 18:36 34.19570 -80.52858 38395 ft 461 kts 202°
2026-04-21 18:37 34.13360 -80.54794 38380 ft 461 kts 202°
2026-04-21 18:37 34.07151 -80.56698 38368 ft 460 kts 202°
2026-04-21 18:38 34.00929 -80.58563 38361 ft 460 kts 202°
2026-04-21 18:38 33.94711 -80.60413 38365 ft 460 kts 202°
2026-04-21 18:39 33.88500 -80.62256 38370 ft 460 kts 202°
2026-04-21 18:39 33.83337 -80.63788 38356 ft 459 kts 201°
2026-04-21 18:40 33.77142 -80.65625 38365 ft 459 kts 201°
2026-04-21 18:40 33.70945 -80.67460 38377 ft 459 kts 201°
2026-04-21 18:41 33.64743 -80.69293 38370 ft 459 kts 201°
2026-04-21 18:41 33.58537 -80.71125 38359 ft 459 kts 201°
2026-04-21 18:42 33.52343 -80.72950 38368 ft 459 kts 201°
2026-04-21 18:42 33.46144 -80.74775 38378 ft 459 kts 201°
2026-04-21 18:43 33.39935 -80.76601 38373 ft 460 kts 201°
2026-04-21 18:43 33.33760 -80.78416 38357 ft 460 kts 201°
2026-04-21 18:44 33.27535 -80.80242 38366 ft 461 kts 201°
2026-04-21 18:44 33.21309 -80.82066 38370 ft 461 kts 201°
2026-04-21 18:45 33.15075 -80.83891 38360 ft 461 kts 201°
2026-04-21 18:45 33.08837 -80.85709 38357 ft 461 kts 201°
2026-04-21 18:46 33.02604 -80.87526 38366 ft 461 kts 201°
2026-04-21 18:46 32.96368 -80.89342 38357 ft 461 kts 201°
2026-04-21 18:47 32.90133 -80.91155 38342 ft 461 kts 201°
2026-04-21 18:47 32.83901 -80.92965 38356 ft 461 kts 201°
2026-04-21 18:48 32.77676 -80.94769 38352 ft 460 kts 201°
2026-04-21 18:48 32.71461 -80.96569 38341 ft 460 kts 201°
2026-04-21 18:49 32.65290 -80.98355 38351 ft 459 kts 201°
2026-04-21 18:49 32.60088 -80.99857 38345 ft 459 kts 201°
2026-04-21 18:50 32.52852 -81.01839 38346 ft 463 kts 195°
2026-04-21 18:50 32.46339 -81.02154 38346 ft 471 kts 186°
2026-04-21 18:51 32.39786 -81.02139 38347 ft 470 kts 187°
2026-04-21 18:51 32.33249 -81.02214 38339 ft 470 kts 187°
2026-04-21 18:52 32.26718 -81.02327 38327 ft 470 kts 187°
2026-04-21 18:52 32.20181 -81.02444 38339 ft 469 kts 188°
2026-04-21 18:53 32.13648 -81.02559 38340 ft 469 kts 188°
2026-04-21 18:53 32.07128 -81.02674 38304 ft 468 kts 188°
2026-04-21 18:54 32.00613 -81.02787 38284 ft 467 kts 188°
2026-04-21 18:54 31.94123 -81.02946 38296 ft 466 kts 188°
2026-04-21 18:55 31.88733 -81.03115 38310 ft 466 kts 188°
2026-04-21 18:55 31.81145 -81.03348 38318 ft 467 kts 188°
2026-04-21 18:56 31.74655 -81.03536 38301 ft 467 kts 188°
2026-04-21 18:56 31.68171 -81.03723 38327 ft 466 kts 188°
2026-04-21 18:57 31.61692 -81.03968 38326 ft 462 kts 194°
2026-04-21 18:57 31.55604 -81.05776 38325 ft 444 kts 211°
2026-04-21 18:58 31.50191 -81.09070 38321 ft 438 kts 216°
2026-04-21 18:58 31.44823 -81.12444 38324 ft 439 kts 216°
2026-04-21 18:59 31.39405 -81.15767 38323 ft 440 kts 215°
2026-04-21 18:59 31.33991 -81.19019 38327 ft 441 kts 214°
2026-04-21 19:00 31.28508 -81.22255 38319 ft 442 kts 214°
2026-04-21 19:00 31.23032 -81.25495 38320 ft 441 kts 215°
2026-04-21 19:01 31.17196 -81.27988 38327 ft 457 kts 198°
2026-04-21 19:01 31.10733 -81.28465 37961 ft 475 kts 187°
2026-04-21 19:01 31.07422 -81.28415 37428 ft 475 kts 186°
2026-04-21 19:02 31.04118 -81.28342 36811 ft 474 kts 186°
2026-04-21 19:02 31.00825 -81.28279 36220 ft 473 kts 186°
2026-04-21 19:02 30.97550 -81.28238 35767 ft 469 kts 186°
2026-04-21 19:02 30.94298 -81.28213 35286 ft 466 kts 186°
2026-04-21 19:03 30.91065 -81.28196 34806 ft 463 kts 186°
2026-04-21 19:03 30.87849 -81.28185 34329 ft 462 kts 186°
2026-04-21 19:03 30.84641 -81.28177 33804 ft 460 kts 185°
2026-04-21 19:03 30.81458 -81.28168 33334 ft 456 kts 185°
2026-04-21 19:04 30.78298 -81.28157 32873 ft 452 kts 185°
2026-04-21 19:04 30.75166 -81.28147 32428 ft 449 kts 185°
2026-04-21 19:04 30.72055 -81.28137 31988 ft 445 kts 185°
2026-04-21 19:04 30.68968 -81.28127 31552 ft 441 kts 185°
2026-04-21 19:05 30.65912 -81.28118 31109 ft 438 kts 185°
2026-04-21 19:05 30.62878 -81.28107 30690 ft 434 kts 185°
2026-04-21 19:05 30.59869 -81.28090 30273 ft 431 kts 183°
2026-04-21 19:05 30.56903 -81.27951 30032 ft 422 kts 181°
2026-04-21 19:06 30.53994 -81.27729 29777 ft 415 kts 180°
2026-04-21 19:06 30.51130 -81.27484 29496 ft 411 kts 180°
2026-04-21 19:06 30.48279 -81.27242 29231 ft 412 kts 180°
2026-04-21 19:06 30.45409 -81.27006 28976 ft 415 kts 180°
2026-04-21 19:07 30.42520 -81.26776 28720 ft 416 kts 180°
2026-04-21 19:07 30.39678 -81.26555 28455 ft 413 kts 180°
2026-04-21 19:07 30.36781 -81.26334 28066 ft 412 kts 180°
2026-04-21 19:07 30.33942 -81.26119 27816 ft 405 kts 180°
2026-04-21 19:08 30.31180 -81.25910 27484 ft 401 kts 180°
2026-04-21 19:08 30.28380 -81.25700 27235 ft 395 kts 180°
2026-04-21 19:08 30.25682 -81.25498 26980 ft 392 kts 180°
2026-04-21 19:08 30.22958 -81.25296 26743 ft 394 kts 180°
2026-04-21 19:09 30.20209 -81.25094 26513 ft 398 kts 180°
2026-04-21 19:09 30.17440 -81.24890 26276 ft 399 kts 180°
2026-04-21 19:09 30.14677 -81.24684 26029 ft 396 kts 180°
2026-04-21 19:09 30.11931 -81.24478 25786 ft 395 kts 180°
2026-04-21 19:10 30.09199 -81.24274 25539 ft 393 kts 180°
2026-04-21 19:10 30.06476 -81.24071 25305 ft 392 kts 180°
2026-04-21 19:10 30.03764 -81.23869 25071 ft 390 kts 180°
2026-04-21 19:10 30.01053 -81.23668 24841 ft 389 kts 180°
2026-04-21 19:11 29.98352 -81.23468 24616 ft 389 kts 180°
2026-04-21 19:11 29.95658 -81.23268 24387 ft 388 kts 180°
2026-04-21 19:11 29.92969 -81.23067 24157 ft 387 kts 180°
2026-04-21 19:11 29.90285 -81.22868 23935 ft 386 kts 180°
2026-04-21 19:12 29.88476 -81.22734 23762 ft 385 kts 180°
2026-04-21 19:12 29.84939 -81.22472 23422 ft 383 kts 180°
2026-04-21 19:12 29.82297 -81.22276 23349 ft 379 kts 180°
2026-04-21 19:12 29.79663 -81.22081 23343 ft 381 kts 180°
2026-04-21 19:13 29.77006 -81.21886 23345 ft 383 kts 180°
2026-04-21 19:13 29.74348 -81.21689 23332 ft 383 kts 180°
2026-04-21 19:13 29.71697 -81.21493 23324 ft 382 kts 180°
2026-04-21 19:13 29.69042 -81.21289 23108 ft 385 kts 180°
2026-04-21 19:14 29.66362 -81.21063 22728 ft 385 kts 179°
2026-04-21 19:14 29.63696 -81.20828 22393 ft 383 kts 179°
2026-04-21 19:14 29.61049 -81.20593 22046 ft 379 kts 179°
2026-04-21 19:14 29.58441 -81.20362 21718 ft 373 kts 179°
2026-04-21 19:15 29.55871 -81.20137 21398 ft 368 kts 179°
2026-04-21 19:15 29.53330 -81.19916 21071 ft 365 kts 179°
2026-04-21 19:15 29.50805 -81.19698 20772 ft 363 kts 179°
2026-04-21 19:15 29.48295 -81.19481 20468 ft 360 kts 179°
2026-04-21 19:16 29.45801 -81.19267 20162 ft 359 kts 179°
2026-04-21 19:16 29.43320 -81.19054 19857 ft 357 kts 179°
2026-04-21 19:16 29.40846 -81.18842 19554 ft 356 kts 178°
2026-04-21 19:16 29.38385 -81.18630 19249 ft 354 kts 178°
2026-04-21 19:17 29.33486 -81.18210 18622 ft 352 kts 178°
2026-04-21 19:17 29.31056 -81.18003 18291 ft 350 kts 178°
2026-04-21 19:17 29.28624 -81.17793 17942 ft 349 kts 178°
2026-04-21 19:18 29.26213 -81.17585 17642 ft 347 kts 178°
2026-04-21 19:18 29.23815 -81.17379 17330 ft 345 kts 178°
2026-04-21 19:18 29.21429 -81.17175 17044 ft 343 kts 178°
2026-04-21 19:18 29.19061 -81.16923 16728 ft 343 kts 172°
2026-04-21 19:19 29.16766 -81.16179 16442 ft 343 kts 160°
2026-04-21 19:19 29.14533 -81.15176 15958 ft 349 kts 159°
2026-04-21 19:19 29.12275 -81.14144 15576 ft 349 kts 159°
2026-04-21 19:19 29.10028 -81.13141 15248 ft 344 kts 159°
2026-04-21 19:20 29.07808 -81.12168 14944 ft 339 kts 159°
2026-04-21 19:20 29.05614 -81.11239 14649 ft 335 kts 161°
2026-04-21 19:20 29.03407 -81.10403 14367 ft 333 kts 162°
2026-04-21 19:20 29.01203 -81.09586 14077 ft 332 kts 162°
2026-04-21 19:21 28.99012 -81.08767 13746 ft 331 kts 162°
2026-04-21 19:21 28.96815 -81.08015 13457 ft 329 kts 169°
2026-04-21 19:21 28.94558 -81.07681 13101 ft 326 kts 176°
2026-04-21 19:21 28.92303 -81.07477 12860 ft 326 kts 176°
2026-04-21 19:22 28.90041 -81.07255 12583 ft 327 kts 175°
2026-04-21 19:22 28.87773 -81.07293 12294 ft 326 kts 192°
2026-04-21 19:22 28.85638 -81.08017 12031 ft 324 kts 202°
2026-04-21 19:22 28.83504 -81.08929 11748 ft 322 kts 202°
2026-04-21 19:23 28.81413 -81.09839 11462 ft 322 kts 202°
2026-04-21 19:23 28.79350 -81.10727 11181 ft 321 kts 202°
2026-04-21 19:23 28.77237 -81.11622 10907 ft 319 kts 201°
2026-04-21 19:23 28.75190 -81.12477 10622 ft 316 kts 201°
2026-04-21 19:24 28.73138 -81.13331 10357 ft 313 kts 201°
2026-04-21 19:24 28.71100 -81.14177 10081 ft 310 kts 200°
2026-04-21 19:24 28.69080 -81.14886 9910 ft 295 kts 194°
2026-04-21 19:24 28.67099 -81.15404 9534 ft 292 kts 192°
2026-04-21 19:25 28.65132 -81.15881 9322 ft 287 kts 192°
2026-04-21 19:25 28.63187 -81.16362 9065 ft 285 kts 192°
2026-04-21 19:25 28.61251 -81.16849 8836 ft 286 kts 191°
2026-04-21 19:25 28.59301 -81.17349 8589 ft 288 kts 191°
2026-04-21 19:26 28.57344 -81.17855 8342 ft 287 kts 192°
2026-04-21 19:26 28.55411 -81.18356 8099 ft 282 kts 191°
2026-04-21 19:26 28.53500 -81.18736 7849 ft 276 kts 180°
2026-04-21 19:26 28.51602 -81.18761 7612 ft 271 kts 176°
2026-04-21 19:27 28.49735 -81.18724 7387 ft 267 kts 176°
2026-04-21 19:27 28.47885 -81.18706 7155 ft 263 kts 176°
2026-04-21 19:27 28.46055 -81.18708 6930 ft 263 kts 176°
2026-04-21 19:27 28.44230 -81.18715 6697 ft 263 kts 176°
2026-04-21 19:28 28.43017 -81.18723 6530 ft 263 kts 177°
2026-04-21 19:28 28.41189 -81.18738 6297 ft 262 kts 176°
2026-04-21 19:28 28.39372 -81.18750 6061 ft 260 kts 176°
2026-04-21 19:28 28.37563 -81.18761 5838 ft 260 kts 175°
2026-04-21 19:29 28.35758 -81.18776 5579 ft 259 kts 175°
2026-04-21 19:29 28.33977 -81.18789 5353 ft 254 kts 176°
2026-04-21 19:29 28.32224 -81.18803 5145 ft 249 kts 175°
2026-04-21 19:29 28.30500 -81.18817 4903 ft 246 kts 175°
2026-04-21 19:30 28.28800 -81.18831 4693 ft 242 kts 175°
2026-04-21 19:30 28.27134 -81.18845 4493 ft 238 kts 175°
2026-04-21 19:30 28.25500 -81.19037 4310 ft 237 kts 193°
2026-04-21 19:30 28.24058 -81.19954 4104 ft 241 kts 220°
2026-04-21 19:31 28.23105 -81.21495 3996 ft 238 kts 247°
2026-04-21 19:31 28.22766 -81.23320 3999 ft 237 kts 271°
2026-04-21 19:31 28.23036 -81.25149 3720 ft 240 kts 295°
2026-04-21 19:31 28.23886 -81.26664 3581 ft 223 kts 318°
2026-04-21 19:32 28.25135 -81.27654 3343 ft 212 kts 346°
2026-04-21 19:32 28.26542 -81.27941 3099 ft 203 kts
2026-04-21 19:32 28.27926 -81.28079 2834 ft 196 kts
2026-04-21 19:32 28.29271 -81.28108 2562 ft 190 kts
2026-04-21 19:33 28.30564 -81.28118 2331 ft 182 kts
2026-04-21 19:33 28.31786 -81.28132 2095 ft 167 kts
2026-04-21 19:33 28.32888 -81.28144 1877 ft 154 kts
2026-04-21 19:33 28.33936 -81.28154 1698 ft 147 kts
2026-04-21 19:34 28.34921 -81.28160 1524 ft 140 kts
2026-04-21 19:34 28.35919 -81.28195 1271 ft 147 kts
2026-04-21 19:34 28.36944 -81.28262 1129 ft 148 kts
2026-04-21 19:34 28.37940 -81.28249 967 ft 138 kts 10°
2026-04-21 19:35 28.38878 -81.28229 810 ft 131 kts
2026-04-21 19:35 28.40702 -81.28238 373 ft 135 kts
2026-04-21 19:35 28.41641 -81.28235 179 ft 135 kts
2026-04-21 19:36 28.42536 -81.28238 98 ft 112 kts 360°
2026-04-21 19:36 28.43162 -81.28246 95 ft 68 kts 360°
2026-04-21 19:36 28.43464 -81.28271 94 ft 28 kts 338°
2026-04-21 19:36 28.43564 -81.28362 94 ft 16 kts 325°
2026-04-21 19:37 28.43669 -81.28374 96 ft 15 kts 360°
2026-04-21 19:37 28.43772 -81.28376 95 ft 14 kts 359°
2026-04-21 19:37 28.43865 -81.28395 94 ft 14 kts 309°
2026-04-21 19:37 28.43875 -81.28500 97 ft 13 kts 269°
2026-04-21 19:38 28.43874 -81.28603 100 ft 13 kts 269°
2026-04-21 19:38 28.43873 -81.28712 105 ft 14 kts 269°
2026-04-21 19:38 28.43872 -81.28832 108 ft 16 kts 270°
2026-04-21 19:38 28.43871 -81.28976 106 ft 19 kts 270°
2026-04-21 19:39 28.43870 -81.29124 104 ft 18 kts 269°
2026-04-21 19:39 28.43860 -81.29241 95 ft 9 kts 236°
2026-04-21 19:39 28.43797 -81.29264 98 ft 11 kts 178°
2026-04-21 19:39 28.43717 -81.29261 99 ft 11 kts 178°
2026-04-21 19:40 28.43639 -81.29262 97 ft 12 kts 180°
2026-04-21 19:40 28.43557 -81.29293 97 ft 15 kts 244°
2026-04-21 19:40 28.43552 -81.29421 95 ft 17 kts 269°
2026-04-21 19:40 28.43551 -81.29550 98 ft 16 kts 269°
2026-04-21 19:41 28.43550 -81.29675 94 ft 14 kts 270°
2026-04-21 19:41 28.43549 -81.29787 94 ft 14 kts 270°
2026-04-21 19:41 28.43531 -81.29889 94 ft 13 kts 228°
2026-04-21 19:41 28.43481 -81.29925 94 ft 7 kts 225°
2026-04-21 19:42 28.43473 -81.29979 94 ft 7 kts 270°
2026-04-21 19:42 28.43473 -81.30016 94 ft 2 kts 268°
2026-04-21 19:42 28.43473 -81.30019 94 ft 0 kts 269°